Theta_e
307 309 310 310 311 311 311 311 312 313 311 309 310 311 311 312 312 311 315 318 317 311 309 317 318 316 316 315 313 314 311 312 314 318 318 319 317 320 320 320 320 326 349 353 358
309 308 308 310 310 311 310 311 313 313 310 309 310 311 311 312 315 319 319 317 311 311 312 312 316 316 315 315 314 310 309 312 313 315 316 318 318 318 318 318 320 336 348 353 350
309 309 305 309 310 310 310 312 314 311 310 309 310 314 318 320 321 320 314 312 313 313 317 318 318 319 315 313 314 311 310 311 314 316 317 317 317 317 317 317 319 328 353 355 356
307 308 306 308 309 310 309 313 313 310 310 311 314 316 320 319 319 315 312 313 314 316 316 317 317 317 313 312 315 311 312 312 313 315 315 314 316 316 317 318 319 320 322 342 355
307 308 307 309 309 310 309 313 314 311 310 310 314 316 318 318 314 314 314 314 314 314 314 314 315 316 315 314 314 313 312 314 314 314 314 314 314 315 316 318 319 319 320 336 354
306 309 308 309 309 309 310 314 316 313 311 310 310 317 316 315 315 314 314 314 315 314 314 313 313 313 315 314 314 314 314 314 315 314 313 312 312 314 315 316 318 319 320 321 349
306 309 308 309 309 311 313 316 316 316 312 313 317 317 318 315 315 315 315 314 315 314 314 313 313 313 315 313 315 315 313 312 313 313 311 313 312 313 315 316 319 320 320 319 341
308 308 308 309 314 315 316 317 315 316 314 312 318 318 319 317 315 316 315 315 315 314 313 314 313 314 314 315 313 313 312 313 312 313 314 312 311 313 314 315 316 317 319 319 338
309 308 308 309 314 317 318 319 317 315 317 318 313 317 318 317 316 317 316 315 315 314 314 314 314 314 314 311 310 310 314 317 318 316 315 313 312 313 314 315 316 317 318 319 323
309 307 309 309 314 315 316 318 315 317 318 319 318 317 318 317 317 318 317 315 315 315 314 314 314 312 310 309 313 313 315 315 316 317 316 317 317 317 317 314 315 315 316 318 319
316 307 309 309 313 316 317 316 314 316 315 316 317 318 318 317 317 318 317 316 316 315 313 313 313 313 313 312 313 315 316 315 314 316 317 317 317 316 316 313 313 315 316 317 319
315 309 309 311 315 318 315 315 315 315 316 317 318 318 318 318 317 317 318 317 316 315 313 313 313 313 314 314 315 314 314 315 315 316 318 316 316 315 315 315 314 314 315 317 319
315 309 308 312 318 317 314 315 316 317 316 319 320 318 317 317 317 319 319 318 316 314 313 313 314 315 315 315 315 314 314 314 315 314 315 315 315 315 315 315 316 315 316 317 319
315 309 309 311 315 313 314 315 314 318 317 319 319 319 315 316 318 318 319 317 316 315 314 314 314 316 316 315 314 313 312 313 312 314 315 315 317 314 314 315 314 315 315 316 318
314 309 311 313 314 314 313 313 315 321 313 315 314 314 315 317 318 318 318 317 316 316 317 318 318 318 318 316 314 315 316 315 313 312 311 312 312 313 314 315 314 313 315 316 318
314 310 314 313 314 315 315 319 319 316 316 314 314 314 315 317 316 317 317 317 317 317 317 317 317 317 318 317 316 315 313 311 310 309 311 311 311 312 312 313 314 314 316 316 317
315 317 315 312 314 315 317 320 319 312 315 314 315 315 316 315 314 317 317 316 317 318 317 317 317 316 317 316 316 315 314 313 309 309 311 314 315 313 312 313 314 315 316 317 318
315 318 317 314 314 315 318 316 316 317 314 314 315 316 314 313 313 314 314 315 317 317 317 320 317 317 317 316 316 316 315 315 313 317 316 314 314 314 314 314 315 315 316 317 320
315 318 320 317 315 315 318 315 315 316 315 316 315 316 315 313 314 313 313 317 318 316 320 321 318 316 316 315 316 317 315 313 315 316 316 315 315 316 316 317 316 314 315 316 320
315 319 317 315 315 315 314 317 315 317 317 315 315 316 314 314 314 312 315 317 318 317 315 317 319 316 316 315 314 315 315 314 313 317 318 319 318 318 317 319 318 319 319 317 317
314 319 316 315 316 317 312 313 315 317 317 316 315 315 314 314 314 313 316 316 316 317 316 317 317 317 315 315 313 314 314 313 312 315 319 320 318 316 316 318 318 317 318 319 319
315 313 317 315 315 314 313 315 316 317 316 317 315 314 315 315 314 314 316 316 317 317 318 316 316 318 316 315 315 314 314 313 313 312 317 316 317 316 317 318 318 317 318 322 321
316 316 316 315 311 311 314 316 316 316 315 314 315 317 315 315 312 314 313 316 317 316 317 315 317 319 317 316 316 316 317 314 313 310 314 316 317 315 318 321 317 317 320 331 342
316 313 316 314 313 313 312 314 317 313 314 312 312 313 315 314 312 312 313 315 316 316 317 314 315 315 316 318 317 317 316 316 315 313 316 316 315 315 316 318 319 317 321 327 339
316 314 314 310 313 312 312 314 313 313 313 313 313 314 313 315 314 312 314 314 316 317 317 316 318 316 315 315 316 316 316 316 317 316 318 318 317 317 315 315 315 315 319 323 336
315 314 313 311 313 312 312 312 314 314 311 312 311 311 311 315 312 314 312 313 314 316 316 314 316 315 316 316 316 317 316 316 315 316 315 316 317 316 315 316 316 316 318 321 327
314 315 311 312 312 311 312 313 313 310 311 311 311 310 313 314 315 314 313 314 314 317 316 315 315 316 318 317 319 319 317 317 316 317 319 320 318 315 316 317 315 316 318 319 319
Wind_Speed
17 13 12 13 14 17 19 21 22 21 17 15 14 13 13 11 8 7 7 7 11 12 8 2 5 10 7 5 7 7 2 4 5 3 6 30 8 23 31 17 32 28 20 35 35
23 18 12 12 14 16 19 22 23 20 16 15 14 12 10 8 7 10 9 10 7 10 8 6 5 12 3 6 4 4 3 7 5 6 13 28 14 25 21 21 21 33 23 46 46
26 21 14 12 13 16 19 21 22 16 16 16 12 11 12 5 7 8 15 12 11 6 9 6 9 10 5 3 6 5 6 6 18 27 28 28 23 28 15 8 16 13 16 45 53
29 22 16 11 13 16 18 19 19 15 15 14 12 11 9 10 3 10 12 12 13 10 10 13 13 8 3 4 13 4 9 17 23 31 25 16 26 22 20 17 24 22 17 25 55
32 22 16 12 13 16 17 16 16 14 12 10 8 10 10 5 3 8 11 11 10 10 14 17 15 11 2 7 12 3 4 15 17 20 23 31 23 19 20 25 27 30 17 29 45
33 22 16 13 14 16 15 13 14 12 11 8 7 7 6 4 13 9 9 10 9 8 10 12 12 19 10 5 2 12 17 20 18 23 21 8 13 13 31 24 28 31 27 12 35
34 21 15 14 16 16 12 12 14 12 9 8 8 6 1 3 8 7 6 13 14 11 11 15 14 11 13 8 11 18 8 11 8 10 8 14 13 18 22 19 25 28 34 13 27
36 22 14 13 14 14 11 12 15 9 7 4 7 7 4 7 8 8 3 7 8 9 12 12 7 10 7 9 10 6 3 5 6 9 13 1 14 26 24 18 31 26 35 23 19
39 23 13 11 10 11 12 13 15 7 4 7 5 7 3 6 5 9 7 7 9 7 12 8 8 7 6 1 5 6 3 9 8 12 8 6 13 26 18 15 28 24 31 27 10
41 28 14 13 10 11 12 12 17 3 3 5 3 5 3 1 11 8 10 5 11 12 12 6 3 2 3 3 4 6 5 6 11 5 11 14 17 23 26 20 27 26 29 26 18
41 30 15 12 10 14 13 15 15 4 15 10 10 9 16 9 9 11 5 5 11 10 4 9 3 7 14 10 12 7 5 10 15 12 1 13 17 20 19 17 20 25 25 25 25
41 32 14 11 7 11 13 11 9 11 11 15 14 18 21 19 7 10 4 5 6 6 7 4 6 15 13 7 9 7 8 9 9 14 4 14 22 21 19 14 21 29 26 24 26
42 29 13 10 6 12 15 8 12 17 3 10 9 11 11 7 6 7 5 7 4 6 8 5 13 14 13 8 9 6 8 8 10 12 7 10 20 16 18 14 19 28 31 23 21
42 23 13 12 4 14 15 13 20 12 4 4 1 4 12 8 2 6 8 5 3 6 6 9 5 9 17 15 10 9 7 10 12 5 8 6 8 13 12 16 7 17 26 26 19
39 14 16 12 6 13 16 14 15 9 5 9 10 12 25 4 11 8 6 6 6 10 2 14 22 19 18 13 12 11 12 14 8 5 3 12 4 8 4 12 16 8 22 31 19
32 7 15 13 10 13 16 12 7 5 2 4 8 12 13 9 15 5 9 14 6 2 4 15 20 14 16 16 14 9 5 5 4 2 6 11 7 13 5 11 9 8 20 30 17
26 6 12 15 13 17 19 8 5 5 5 7 6 9 10 9 14 5 5 6 3 6 9 11 6 6 6 9 13 7 3 4 4 2 5 2 2 16 7 14 16 13 19 28 21
26 5 7 16 16 17 19 5 6 5 2 3 4 8 4 10 11 11 9 9 4 5 5 7 8 3 3 3 4 2 6 5 5 2 4 10 6 6 7 19 28 24 27 25 20
27 8 7 14 14 14 11 5 3 4 4 3 4 3 2 6 3 6 6 1 3 4 4 5 6 10 19 24 5 1 3 4 2 1 2 4 7 7 12 15 14 18 23 24 20
27 7 12 20 17 11 5 4 5 6 8 3 2 2 5 6 5 4 3 2 5 5 8 4 11 9 11 9 4 6 4 2 2 3 4 5 5 2 15 20 22 20 24 28 19
25 5 14 25 1 6 3 5 6 21 17 4 3 4 6 5 4 3 5 6 3 3 4 6 5 7 10 5 4 1 2 3 3 3 3 3 4 5 8 10 20 25 38 37 25
21 5 10 22 7 4 2 5 17 14 12 3 4 5 5 7 5 5 6 6 12 4 5 1 4 6 17 19 13 3 5 5 3 7 5 3 7 7 12 10 17 27 35 34 31
22 9 13 15 3 4 8 8 8 6 5 5 7 4 7 4 4 6 7 8 11 8 5 4 2 6 9 4 5 1 3 1 3 2 16 9 5 4 9 6 22 30 32 29 27
11 4 10 10 15 3 5 7 7 18 8 16 13 11 4 5 7 7 5 4 14 11 11 8 4 6 6 5 4 13 17 18 4 3 8 8 16 6 4 4 7 31 27 32 10
10 4 7 4 10 17 9 10 9 7 4 11 5 10 16 11 8 5 6 4 6 8 7 6 4 10 16 19 17 19 25 18 17 15 11 13 16 11 1 3 5 34 16 22 1
9 6 10 19 15 5 6 5 5 13 7 8 9 17 18 9 5 14 8 7 6 5 7 4 4 5 11 16 18 22 22 18 17 19 19 15 17 8 13 7 8 22 12 13 15
16 15 6 9 8 6 4 6 22 13 11 19 16 14 13 7 26 32 31 25 13 7 8 4 3 2 4 6 8 9 14 11 10 14 13 12 15 6 6 5 8 13 2 5 6
Wind_Direction
5 357 357 359 3 5 4 360 357 355 357 356 345 342 330 325 337 344 348 5 350 349 353 20 10 19 254 250 230 255 21 274 256 296 270 295 330 314 318 319 332 320 198 173 171
6 357 349 355 360 3 3 1 358 358 6 2 1 8 3 16 58 53 25 356 357 349 354 330 352 357 351 252 235 150 160 240 226 272 281 284 300 308 328 337 332 339 173 167 177
5 359 353 353 360 2 4 3 1 10 12 9 16 35 35 48 80 23 354 340 322 355 23 360 340 336 299 285 233 223 226 233 267 268 272 281 290 294 288 308 310 352 141 159 165
6 4 3 1 2 2 4 5 7 13 13 20 42 31 27 36 91 359 2 39 46 24 6 352 334 313 281 304 295 305 260 249 262 266 264 268 282 278 273 277 291 293 277 247 173
7 8 9 6 4 2 3 5 8 10 13 21 21 20 30 38 12 8 32 38 32 5 348 342 328 336 282 290 320 229 305 313 298 292 278 273 269 275 272 286 289 289 298 260 184
7 8 9 9 3 1 2 2 2 2 11 13 5 23 41 30 14 351 29 2 354 327 334 317 326 329 297 324 357 312 313 305 312 306 296 286 296 302 274 291 292 291 295 281 224
5 6 9 8 5 3 10 6 355 354 2 23 9 354 202 60 16 8 2 356 339 294 312 322 318 324 324 328 324 312 308 315 308 300 284 315 305 279 287 298 294 298 298 332 276
3 1 7 8 14 15 16 3 355 344 354 339 355 344 283 351 331 340 306 345 299 312 306 341 349 307 284 301 320 300 317 331 322 317 298 128 276 274 291 298 290 296 298 307 200
3 359 359 4 13 17 9 1 349 326 337 321 302 340 311 318 305 350 316 290 351 351 324 296 307 285 302 44 350 11 298 314 323 330 334 332 285 280 297 278 277 283 290 301 303
4 358 352 352 352 354 347 348 346 259 340 331 266 317 286 39 342 329 301 319 337 316 306 257 230 299 324 89 231 241 273 261 274 296 333 310 290 289 309 270 265 274 276 290 292
360 358 351 348 343 353 357 357 2 3 313 272 272 273 277 285 312 330 264 255 302 281 261 268 153 231 241 224 237 215 234 261 283 272 238 283 286 287 304 276 257 264 266 272 278
356 355 351 353 359 6 7 13 8 323 302 304 273 265 268 274 276 301 280 247 258 278 302 341 225 235 254 226 209 213 234 261 276 260 184 308 297 289 289 274 255 260 255 259 270
353 354 358 4 27 9 13 7 342 328 288 297 244 262 283 230 244 282 293 307 263 304 306 261 273 286 286 296 223 224 231 255 252 287 225 247 281 275 284 274 283 255 250 248 256
353 355 12 12 54 13 3 356 337 340 59 326 151 333 332 282 241 282 303 266 289 278 294 276 296 314 309 297 293 273 233 257 266 272 274 72 289 270 271 277 284 279 246 245 240
355 9 24 27 35 12 352 334 326 327 57 318 18 348 349 30 343 359 307 302 254 279 54 276 291 289 280 276 282 285 277 272 238 246 306 273 248 281 200 276 281 271 251 248 214
358 32 17 33 19 358 3 347 312 48 335 5 14 349 351 343 349 327 344 335 292 359 261 274 279 274 256 267 284 295 306 305 295 188 250 268 193 269 209 235 271 273 257 246 216
359 37 29 22 13 2 354 339 45 85 306 349 347 332 326 353 341 9 304 338 30 341 317 319 296 263 281 298 282 246 89 329 314 347 226 206 329 245 249 245 237 255 276 247 210
356 337 19 25 12 1 349 50 69 333 124 245 323 312 360 354 320 352 341 328 23 42 316 330 322 309 135 243 261 223 186 176 228 252 283 299 236 248 253 245 256 264 259 262 190
358 343 347 5 352 350 358 40 237 306 271 279 300 275 257 328 305 360 315 242 33 64 318 301 258 316 296 296 179 211 188 220 241 277 278 247 282 292 341 325 281 255 264 262 207
356 20 27 5 331 318 65 267 322 294 295 249 281 299 300 319 335 331 304 240 322 128 138 258 294 292 303 307 231 181 155 94 43 244 251 270 296 239 358 355 338 338 340 277 215
358 8 14 350 40 6 125 241 292 319 318 276 262 264 260 275 264 270 247 269 173 241 147 258 231 293 313 237 200 165 2 67 150 214 196 293 264 281 15 1 340 330 321 313 200
350 341 333 344 51 2 319 287 312 312 336 306 254 238 259 289 270 253 242 220 231 146 307 107 293 281 274 263 267 222 236 166 178 273 218 215 276 323 40 4 349 312 315 333 200
339 308 345 5 61 329 303 309 295 335 314 346 300 262 292 268 318 240 243 250 180 160 188 164 253 304 312 359 45 284 340 60 295 290 256 267 252 108 77 31 331 313 323 344 186
345 348 343 349 6 359 336 288 313 329 312 354 292 294 330 296 267 276 281 249 191 199 187 155 218 211 251 286 323 294 293 296 258 246 296 265 289 313 142 337 318 319 329 351 229
10 327 7 302 325 317 304 282 320 341 279 328 306 335 320 302 289 262 275 274 206 211 174 171 261 232 248 260 277 276 277 278 281 273 266 296 281 301 342 203 285 286 333 10 17
0 334 313 292 292 300 308 308 330 324 339 305 335 317 312 293 243 302 285 287 231 162 155 191 264 250 272 261 255 259 269 276 272 277 279 275 279 253 250 282 304 281 352 20 41
328 327 291 275 306 319 268 329 310 324 300 310 298 307 304 280 317 296 281 271 245 182 178 178 238 304 264 346 299 275 276 291 312 292 290 285 288 202 270 295 274 288 183 37 35